DL3NBY Weather Reports


time (UTC)temp
F
wind
direction
speed
knots
gust
knots
rain 1hr
in
rain 24hr
in
rain mn
in
humidity
%
barometer
mb
20260906125042 73 90 0.0 1.7 0.00 0.00 0.00 47 1025.6
20260906124039 72 0.0 1.7 0.00 0.00 0.00 48 1025.7
20260906122033 72 52 0.9 3.5 0.00 0.00 0.00 49 1025.8
20260906121030 71 180 0.0 1.7 0.00 0.00 0.00 49 1025.9
20260906114020 70 0 0.0 1.7 0.00 0.00 0.00 53 1026.3
20260906113017 71 135 0.0 1.7 0.00 0.00 0.00 54 1026.3
20260906112114 70 0 0.0 1.7 0.00 0.00 0.00 53 1026.4
20260906111111 69 74 0.0 2.6 0.00 0.00 0.00 53 1026.5
20260906110108 68 90 0.0 1.7 0.00 0.00 0.00 54 1026.6
20260906105105 68 90 0.0 1.7 0.00 0.00 0.00 55 1026.7
20260906104102 68 90 0.9 2.6 0.00 0.00 0.00 56 1026.7
20260906103119 67 0.0 1.7 0.00 0.00 0.00 58 1026.7
20260906101052 65 225 0.0 1.7 0.00 0.00 0.00 63 1026.7
20260906100049 65 68 0.0 1.7 0.00 0.00 0.00 62 1026.8
20260906095046 64 75 0.0 1.7 0.00 0.00 0.00 60 1027.0
20260906094103 64 270 0.0 2.6 0.00 0.00 0.00 63 1027.0
20260906093040 63 0 0.0 1.7 0.00 0.00 0.00 65 1027.1
20260906092057 63 90 0.0 1.7 0.00 0.00 0.00 70 1027.2
20260906084023 62 45 0.0 2.6 0.00 0.00 0.00 75 1027.2
20260906083020 61 90 0.0 1.7 0.00 0.00 0.00 74 1027.2
20260906080110 59 76 0.9 1.7 0.00 0.00 0.00 79 1027.4
20260906074104 58 180 0.0 1.7 0.00 0.00 0.00 85 1027.0
20260906073101 57 0.0 0.9 0.00 0.00 0.00 86 1026.8
20260906071115 54 0.0 0.0 0.00 0.00 0.00 93 1027.0
20260906070051 53 0.0 0.0 0.00 0.00 0.00 95 1026.9
20260906065048 52 0.0 0.0 0.00 0.00 0.00 98 1026.9
20260906064045 51 0.0 0.0 0.00 0.00 0.00 99 1026.9
20260906063042 50 0 0.0 1.7 0.00 0.00 0.00 99 1026.8
20260906062039 49 0.0 0.0 0.00 0.00 0.00 99 1026.7
20260906055029 47 0.0 0.0 0.00 0.00 0.00 99 1026.6
20260906054026 46 0.0 0.0 0.00 0.00 0.00 99 1026.4
20260906053023 45 0.0 0.0 0.00 0.00 0.00 99 1026.5
20260906052020 44 0.0 0.0 0.00 0.00 0.00 99 1026.3
20260906051017 43 0.0 0.0 0.00 0.00 0.00 99 1026.3
20260906050114 42 0.0 0.0 0.00 0.00 0.00 99 1026.1
20260906045110 43 0.0 0.0 0.00 0.00 0.00 99 1026.0
20260906044107 43 0.0 0.0 0.00 0.00 0.00 99 1026.0
20260906043124 43 0.0 0.0 0.00 0.00 0.00 99 1026.1
20260906042101 43 0.0 0.0 0.00 0.00 0.00 99 1026.1
20260906040115 44 0.0 0.0 0.00 0.00 0.00 99 1025.9
20260906035132 44 0.0 0.0 0.00 0.00 0.00 99 1026.1
20260906034048 44 0.0 0.0 0.00 0.00 0.00 99 1025.9
20260906033106 46 0.0 0.0 0.00 0.00 0.00 99 1026.0
20260906032042 45 0.0 0.9 0.00 0.00 0.00 99 1025.9
20260906031039 45 0.0 0.0 0.00 0.00 0.00 99 1025.9
20260906030037 45 0.0 0.0 0.00 0.00 0.00 99 1025.8
20260906024029 46 0.0 0.0 0.00 0.00 0.00 99 1025.8
20260906023026 46 0.0 0.0 0.00 0.00 0.00 99 1025.7
20260906022023 46 0.0 0.0 0.00 0.00 0.00 99 1025.5
20260906021041 46 0.0 0.0 0.00 0.00 0.00 99 1025.3
20260906020016 45 0.0 0.0 0.00 0.00 0.00 99 1025.4
20260906015153 45 0.0 0.0 0.00 0.00 0.00 99 1025.2
20260906014110 46 0.0 0.0 0.00 0.00 0.00 99 1025.0
20260906013107 47 0.0 0.0 0.00 0.01 0.00 99 1025.0
20260906012124 48 0.0 0.0 0.00 0.04 0.00 99 1025.0
20260906011101 48 0.0 0.0 0.00 0.04 0.00 99 1025.1
20260906010058 48 0.0 0.0 0.00 0.05 0.00 99 1024.9
20260906005054 47 0.0 0.0 0.00 0.05 0.00 99 1024.9
20260906003108 47 0.0 0.0 0.00 0.05 0.00 99 1025.0
20260906002045 47 0.0 0.0 0.00 0.05 0.00 99 1024.9
20260906001042 47 0.0 0.0 0.00 0.05 0.00 99 1024.8
20260906000039 47 0.0 0.0 0.00 0.05 0.00 99 1024.9
20260905233029 49 0.0 0.0 0.00 0.05 0.00 98 1024.6
20260905231023 50 0.0 0.0 0.00 0.05 0.00 97 1024.5
20260905230020 51 0.0 0.0 0.00 0.05 0.00 97 1024.3
20260905225016 51 0.0 0.0 0.00 0.05 0.00 97 1024.2
20260905224113 50 0.0 0.0 0.00 0.05 0.00 98 1024.2
20260905222107 49 0.0 0.0 0.00 0.05 0.00 97 1024.0
20260905221104 50 0.0 0.0 0.00 0.05 0.00 96 1023.8
20260905215057 51 0.0 0.0 0.00 0.05 0.05 95 1023.7
20260905214054 51 0.0 0.0 0.00 0.05 0.05 94 1023.8
20260905213051 51 0.0 0.0 0.00 0.05 0.05 93 1023.7
20260905212108 51 0.0 0.0 0.00 0.05 0.05 94 1023.6
20260905211045 51 0.0 0.0 0.00 0.05 0.05 93 1023.5
20260905205039 51 0.0 0.0 0.00 0.05 0.05 93 1023.5
20260905204035 51 0.0 0.0 0.00 0.05 0.05 94 1023.4
20260905202029 53 0.0 0.0 0.00 0.05 0.05 92 1023.1
20260905201026 53 0.0 0.0 0.00 0.05 0.05 90 1023.2
20260905200043 53 0.0 0.0 0.00 0.05 0.05 89 1023.2
20260905195020 53 0.0 0.0 0.00 0.05 0.05 89 1023.0
20260905194037 52 0.0 1.7 0.00 0.05 0.05 91 1022.9
20260905193113 53 0.0 0.0 0.00 0.05 0.05 89 1022.9
20260905192130 55 0.0 0.0 0.00 0.05 0.05 85 1022.8
20260905191107 57 0.0 0.0 0.00 0.05 0.05 83 1022.7
20260905190105 58 0.0 0.0 0.00 0.05 0.05 79 1022.7
20260905185101 60 0.0 0.0 0.00 0.05 0.05 78 1022.7
20260905183054 63 0.0 1.7 0.00 0.05 0.05 67 1022.5
20260905182052 63 270 0.0 1.7 0.00 0.05 0.05 64 1022.4
20260905181048 64 0.0 1.7 0.00 0.05 0.05 64 1022.2
20260905180045 65 180 0.0 1.7 0.00 0.05 0.05 63 1022.1
20260905175042 65 180 0.0 1.7 0.00 0.05 0.05 61 1021.9
20260905174059 66 157 0.0 2.6 0.00 0.05 0.05 61 1021.9
20260905173035 67 225 0.0 4.3 0.00 0.05 0.05 60 1021.7
20260905171029 68 196 0.9 2.6 0.00 0.05 0.05 59 1021.4
20260905170026 69 180 0.9 3.5 0.00 0.05 0.05 60 1021.4
20260905165023 69 225 0.0 3.5 0.00 0.05 0.05 58 1021.2
20260905164040 69 242 0.9 6.1 0.00 0.05 0.05 59 1021.1
20260905163017 70 180 0.9 3.5 0.00 0.05 0.05 57 1021.0
20260905162114 69 203 0.0 3.5 0.00 0.05 0.05 57 1020.9
20260905161131 69 180 0.9 3.5 0.00 0.05 0.05 56 1020.7
20260905160108 70 180 0.0 2.6 0.00 0.05 0.05 58 1020.6
20260905155105 71 225 0.9 3.5 0.00 0.05 0.05 56 1020.5
20260905153058 73 225 1.7 7.0 0.00 0.05 0.05 50 1020.4
20260905152055 74 258 1.7 7.8 0.00 0.05 0.05 51 1020.4
20260905150049 74 286 1.7 6.1 0.00 0.05 0.05 49 1020.1
20260905144042 74 208 0.9 3.5 0.00 0.05 0.05 53 1020.1
20260905143039 73 242 1.7 5.2 0.00 0.05 0.05 52 1020.0
20260905142036 73 247 2.6 7.0 0.00 0.05 0.05 54 1020.1
20260905141053 73 11 1.7 7.0 0.00 0.05 0.05 52 1020.1
20260905140050 73 246 1.7 7.0 0.00 0.05 0.05 54 1020.0
20260905135027 74 268 1.7 9.6 0.00 0.05 0.05 52 1019.9
20260905134023 73 285 1.7 6.1 0.00 0.05 0.05 54 1019.9
20260905133021 73 265 1.7 7.0 0.00 0.05 0.05 54 1019.7
20260905132037 73 259 1.7 8.7 0.00 0.05 0.05 55 1019.8
20260905131114 73 237 1.7 7.0 0.00 0.05 0.05 55 1019.8
20260905130111 73 160 0.9 7.0 0.00 0.05 0.05 58 1019.8